K0OQ Weather Reports


time (UTC)temp
C
wind
direction
speed
KPH
gust
KPH
rain 1hr
cm
rain 24hr
cm
rain mn
cm
humidity
%
barometer
mb
20260906202502 28 164 6.4 12.9 0.00 0.00 0.00 75 968.6
20260906202003 28 135 8.0 8.0 0.00 0.00 0.00 75 968.6
20260906201003 29 135 8.0 9.7 0.00 0.00 0.00 77 968.6
20260906200003 29 45 3.2 8.0 0.00 0.00 0.00 78 968.8
20260906195503 29 45 8.0 8.0 0.00 0.00 0.00 79 968.8
20260906195003 28 45 4.8 8.0 0.00 0.00 0.00 80 968.9
20260906194503 28 219 4.8 9.7 0.00 0.00 0.00 80 968.9
20260906194003 28 94 4.8 14.5 0.00 0.00 0.00 81 969.0
20260906193503 28 98 8.0 11.3 0.00 0.00 0.00 78 969.0
20260906192503 28 225 3.2 3.2 0.00 0.00 0.00 79 969.0
20260906192003 28 225 6.4 11.3 0.00 0.00 0.00 79 969.0
20260906191503 28 123 8.0 11.3 0.00 0.00 0.00 79 969.1
20260906191003 28 112 6.4 8.0 0.00 0.00 0.00 80 969.1
20260906190504 28 112 4.8 9.7 0.00 0.00 0.00 80 969.1
20260906185503 28 135 9.7 9.7 0.00 0.00 0.00 81 969.2
20260906184004 27 135 3.2 3.2 0.00 0.00 0.00 88 969.5
20260906183004 27 135 3.2 3.2 0.00 0.00 0.00 88 969.5
20260906182004 27 135 3.2 3.2 0.00 0.00 0.00 88 969.6
20260906180952 27 135 3.2 3.2 0.00 0.00 0.00 88 969.8
20260906180452 27 135 3.2 3.2 0.00 0.00 0.00 88 970.0
20260906175452 27 135 3.2 3.2 0.00 0.00 0.00 88 970.1
20260906174952 27 135 3.2 3.2 0.00 0.00 0.00 88 970.3
20260906174452 27 135 3.2 3.2 0.00 0.00 0.00 88 970.3
20260906173952 27 135 3.2 3.2 0.00 0.00 0.00 88 970.4
20260906173452 27 143 3.2 3.2 0.00 0.00 0.00 88 970.4
20260906172952 27 202 3.2 3.2 0.00 0.00 0.00 88 970.4
20260906172452 26 202 4.8 4.8 0.00 0.00 0.00 88 970.5
20260906171452 26 270 3.2 3.2 0.00 0.00 0.00 88 970.8
20260906170952 26 269 4.8 8.0 0.00 0.00 0.00 88 970.8
20260906165953 25 225 3.2 3.2 0.00 0.00 0.00 90 970.9
20260906165452 25 225 3.2 3.2 0.00 0.00 0.00 90 970.9
20260906163952 25 225 4.8 4.8 0.00 0.00 0.00 90 971.1
20260906163453 25 225 4.8 4.8 0.00 0.00 0.00 90 971.1
20260906162952 25 225 4.8 4.8 0.00 0.00 0.00 90 971.0
20260906162453 25 329 4.8 4.8 0.00 0.00 0.00 90 971.0
20260906161953 25 270 4.8 8.0 0.00 0.00 0.00 90 971.0
20260906161452 25 112 3.2 9.7 0.00 0.00 0.00 92 971.2
20260906160952 24 112 9.7 9.7 0.00 0.00 0.00 91 971.2
20260906160453 24 112 8.0 9.7 0.00 0.00 0.00 91 971.0
20260906155453 23 112 8.0 11.3 0.00 0.00 0.00 94 971.0
20260906154453 23 112 6.4 8.0 0.00 0.00 0.00 95 971.2
20260906153953 21 18 6.4 8.0 0.00 0.00 0.00 99 971.3
20260906153453 21 112 4.8 9.7 0.00 0.00 0.00 99 971.3
20260906152953 21 148 8.0 12.9 0.00 0.00 0.00 99 971.3
20260906152454 19 180 3.2 4.8 0.00 0.00 0.00 99 971.3
20260906151953 17 179 4.8 4.8 0.00 0.00 0.00 99 971.3
20260906150953 17 112 4.8 4.8 0.00 0.00 0.00 99 971.1
20260906150455 17 112 4.8 4.8 0.00 0.00 0.00 99 971.2
20260906144954 17 112 4.8 4.8 0.00 0.00 0.00 99 971.1
20260906143954 17 112 4.8 4.8 0.00 0.00 0.00 99 971.1
20260906143453 17 112 4.8 4.8 0.00 0.00 0.00 99 971.1
20260906142953 17 112 4.8 4.8 0.00 0.00 0.00 99 971.1
20260906142453 17 112 4.8 4.8 0.00 0.00 0.00 99 971.1
20260906141954 17 112 4.8 4.8 0.00 0.00 0.00 99 971.1
20260906141454 17 112 4.8 4.8 0.00 0.00 0.00 99 971.3
20260906140954 17 112 4.8 4.8 0.00 0.00 0.00 99 971.3
20260906135955 17 112 4.8 4.8 0.00 0.00 0.00 99 971.2
20260906134955 17 112 4.8 4.8 0.00 0.00 0.00 99 971.1
20260906134455 17 112 4.8 4.8 0.00 0.00 0.00 99 971.1
20260906133954 17 112 4.8 4.8 0.00 0.00 0.00 99 971.1
20260906133454 17 112 4.8 4.8 0.00 0.00 0.00 99 971.1
20260906132454 17 112 4.8 4.8 0.00 0.00 0.00 99 971.3
20260906131954 17 112 4.8 4.8 0.00 0.00 0.00 99 971.3
20260906131454 17 191 4.8 4.8 0.00 0.00 0.00 99 971.3
20260906130955 17 112 4.8 4.8 0.00 0.00 0.00 99 971.3
20260906125955 17 112 4.8 4.8 0.00 0.00 0.00 99 971.3
20260906124954 16 112 3.2 3.2 0.00 0.00 0.00 99 971.1
20260906124454 16 112 3.2 3.2 0.00 0.00 0.00 99 971.1
20260906123454 16 112 3.2 3.2 0.00 0.00 0.00 99 971.3
20260906122954 16 112 3.2 3.2 0.00 0.00 0.00 99 971.2
20260906122455 16 112 3.2 3.2 0.00 0.00 0.00 99 971.1
20260906121455 16 112 3.2 3.2 0.00 0.00 0.00 99 970.9
20260906120956 16 112 3.2 3.2 0.00 0.00 0.00 99 970.9
20260906115955 16 130 3.2 3.2 0.00 0.00 0.00 99 970.8
20260906115454 16 135 3.2 3.2 0.00 0.00 0.00 99 970.8
20260906114955 16 112 0.0 3.2 0.00 0.00 0.00 99 970.8
20260906114455 16 112 3.2 3.2 0.00 0.00 0.00 99 970.8
20260906113955 16 112 3.2 3.2 0.00 0.00 0.00 99 971.0
20260906113455 16 112 3.2 3.2 0.00 0.00 0.00 99 971.0
20260906112457 16 112 0.0 0.0 0.00 0.00 0.00 99 971.2
20260906111456 16 202 0.0 0.0 0.00 0.00 0.00 99 970.5
20260906110956 16 202 1.6 1.6 0.00 0.00 0.00 99 970.5
20260906105457 17 112 3.2 3.2 0.00 0.00 0.00 99 970.6
20260906104955 17 112 3.2 3.2 0.00 0.00 0.00 99 970.5
20260906104456 17 112 3.2 3.2 0.00 0.00 0.00 99 970.5
20260906103956 17 112 3.2 3.2 0.00 0.00 0.00 99 970.2
20260906103455 17 112 3.2 3.2 0.00 0.00 0.00 99 970.2
20260906102455 17 112 3.2 3.2 0.00 0.00 0.00 99 970.1
20260906101955 17 112 3.2 3.2 0.00 0.00 0.00 99 970.1
20260906101456 17 112 3.2 3.2 0.00 0.00 0.00 99 969.9
20260906100955 17 112 3.2 3.2 0.00 0.00 0.00 99 969.9
20260906095956 17 112 3.2 3.2 0.00 0.00 0.00 99 969.9
20260906095456 17 112 4.8 8.0 0.00 0.00 0.00 99 969.9
20260906094956 17 112 4.8 8.0 0.00 0.00 0.00 99 970.0
20260906094456 17 112 4.8 4.8 0.00 0.00 0.00 99 970.0
20260906093956 17 112 3.2 4.8 0.00 0.00 0.00 99 970.0
20260906093456 17 202 4.8 4.8 0.00 0.00 0.00 99 970.0
20260906092956 17 112 0.0 0.0 0.00 0.00 0.00 99 969.9
20260906091956 17 22 8.0 11.3 0.00 0.00 0.00 99 969.7
20260906085456 16 112 3.2 4.8 0.00 0.00 0.00 99 970.1
20260906084956 16 225 4.8 4.8 0.00 0.00 0.00 99 970.2
20260906084456 16 146 1.6 4.8 0.00 0.00 0.00 99 970.2
20260906083457 16 180 0.0 0.0 0.00 0.00 0.00 99 970.2
20260906082957 16 180 0.0 0.0 0.00 0.00 0.00 99 970.2
20260906082457 16 180 0.0 0.0 0.00 0.00 0.00 99 970.2
20260906081457 16 180 0.0 0.0 0.00 0.00 0.00 99 970.1
20260906080956 16 180 0.0 0.0 0.00 0.00 0.00 99 970.1
20260906075957 16 180 0.0 0.0 0.00 0.00 0.00 99 969.9
20260906075457 16 180 0.0 0.0 0.00 0.00 0.00 99 969.9
20260906074957 16 180 0.0 0.0 0.00 0.00 0.00 99 970.0
20260906074457 16 180 0.0 0.0 0.00 0.00 0.00 99 970.0
20260906073957 16 180 0.0 0.0 0.00 0.00 0.00 99 970.0
20260906073458 16 180 0.0 0.0 0.00 0.00 0.00 99 970.0
20260906072957 16 180 0.0 0.0 0.00 0.00 0.00 99 970.0
20260906071957 16 225 0.0 0.0 0.00 0.00 0.00 99 970.1
20260906071457 16 158 0.0 3.2 0.00 0.00 0.00 99 970.3
20260906065957 16 119 0.0 0.0 0.00 0.00 0.00 99 970.4
20260906065458 16 112 0.0 0.0 0.00 0.00 0.00 99 970.4
20260906064958 16 135 0.0 0.0 0.00 0.00 0.00 99 970.5
20260906064458 17 112 0.0 0.0 0.00 0.00 0.00 99 970.5
20260906063957 17 338 0.0 0.0 0.00 0.00 0.00 99 970.4
20260906063458 17 338 0.0 0.0 0.00 0.00 0.00 99 970.4
20260906062457 17 338 3.2 3.2 0.00 0.00 0.00 99 970.6
20260906061958 17 338 3.2 3.2 0.00 0.00 0.00 99 970.6
20260906061458 17 338 0.0 0.0 0.00 0.00 0.00 99 970.6
20260906060958 17 338 0.0 0.0 0.00 0.00 0.00 99 970.6
20260906060458 17 338 0.0 0.0 0.00 0.00 0.00 99 970.6
20260906055958 17 338 1.6 1.6 0.00 0.00 0.00 99 970.6
20260906055458 17 112 0.0 4.8 0.00 0.00 0.00 99 970.6
20260906054958 18 112 4.8 4.8 0.00 0.00 0.00 99 970.8
20260906054457 18 112 4.8 4.8 0.00 0.00 0.00 99 970.8
20260906053957 18 112 4.8 4.8 0.00 0.00 0.00 99 970.4
20260906053458 18 112 4.8 4.8 0.00 0.00 0.00 99 970.4
20260906052958 18 112 4.8 4.8 0.00 0.00 0.00 99 970.4
20260906052458 18 112 4.8 4.8 0.00 0.00 0.00 99 970.5
20260906051959 18 112 4.8 4.8 0.00 0.00 0.00 99 970.5
20260906050458 18 112 4.8 4.8 0.00 0.00 0.00 99 970.6
20260906045959 18 112 4.8 4.8 0.00 0.00 0.00 99 970.7
20260906045458 18 112 4.8 4.8 0.00 0.00 0.00 99 970.7
20260906044958 18 112 4.8 4.8 0.00 0.00 0.00 99 970.7
20260906044459 18 112 4.8 4.8 0.00 0.00 0.00 99 970.7
20260906043959 18 112 4.8 4.8 0.00 0.00 0.00 99 970.7
20260906043459 18 112 4.8 4.8 0.00 0.00 0.00 99 970.7
20260906042958 18 112 4.8 4.8 0.00 0.00 0.00 99 970.7
20260906042458 18 112 4.8 4.8 0.00 0.00 0.00 99 970.7
20260906041959 18 112 4.8 4.8 0.00 0.00 0.00 99 970.7
20260906041001 18 112 4.8 4.8 0.00 0.00 0.00 99 970.4
20260906040000 18 135 6.4 8.0 0.00 0.00 0.00 99 970.3
20260906034959 17 135 3.2 3.2 0.00 0.00 0.00 99 970.4
20260906033002 17 202 3.2 3.2 0.00 0.00 0.00 99 970.3
20260906032459 17 242 3.2 4.8 0.00 0.00 0.00 99 970.5
20260906031959 17 338 1.6 1.6 0.00 0.00 0.00 99 970.5
20260906031459 17 338 0.0 1.6 0.00 0.00 0.00 99 970.5
20260906031000 17 338 0.0 0.0 0.00 0.00 0.00 99 970.5
20260906030500 17 338 0.0 3.2 0.00 0.00 0.00 99 970.5
20260906030000 17 338 0.0 0.0 0.00 0.00 0.00 99 970.5
20260906025459 17 338 0.0 0.0 0.00 0.00 0.00 99 970.5
20260906024500 18 112 0.0 0.0 0.00 0.00 0.00 99 970.4
20260906023959 18 112 0.0 0.0 0.00 0.00 0.00 99 970.1
20260906023500 18 112 0.0 0.0 0.00 0.00 0.00 99 970.1
20260906023001 18 112 0.0 0.0 0.00 0.00 0.00 99 970.1
20260906022459 18 112 0.0 0.0 0.00 0.00 0.00 99 970.1
20260906022001 18 112 0.0 0.0 0.00 0.00 0.00 99 970.1
20260906021500 18 112 0.0 0.0 0.00 0.00 0.00 99 970.0
20260906020459 18 135 0.0 0.0 0.00 0.00 0.00 99 969.9
20260906020000 18 158 0.0 0.0 0.00 0.00 0.00 99 969.9
20260906015500 18 158 0.0 0.0 0.00 0.00 0.00 99 969.9
20260906015000 18 119 0.0 0.0 0.00 0.00 0.00 99 969.7
20260906014501 18 112 0.0 1.6 0.00 0.00 0.00 99 969.7
20260906013500 18 92 1.6 3.2 0.00 0.00 0.00 99 969.6
20260906013000 18 96 3.2 3.2 0.00 0.00 0.00 99 969.6
20260906012501 18 158 3.2 3.2 0.00 0.00 0.00 99 969.2
20260906012000 18 158 3.2 4.8 0.00 0.00 0.00 99 969.2
20260906011500 18 112 3.2 3.2 0.00 0.00 0.00 99 969.2
20260906010502 18 112 3.2 3.2 0.00 0.00 0.00 99 968.8
20260906010001 18 112 3.2 3.2 0.00 0.00 0.00 99 968.8
20260906005500 19 112 3.2 3.2 0.00 0.00 0.00 99 968.8
20260906005000 19 101 3.2 4.8 0.00 0.00 0.00 99 968.8
20260906004501 19 112 4.8 4.8 0.00 0.00 0.00 99 968.8
20260906004000 19 125 4.8 4.8 0.00 0.00 0.00 99 968.8
20260906003501 19 135 4.8 4.8 0.00 0.00 0.00 99 968.8
20260906003000 19 68 4.8 4.8 0.00 0.00 0.00 99 968.8
20260906002502 19 68 4.8 4.8 0.00 0.00 0.00 99 969.0
20260906002001 20 68 3.2 3.2 0.00 0.00 0.00 99 969.0
20260906001501 20 57 3.2 3.2 0.00 0.00 0.00 99 968.9
20260906001002 20 91 3.2 3.2 0.00 0.00 0.00 99 968.9
20260905235501 21 112 1.6 1.6 0.00 0.00 0.00 96 969.0
20260905235002 21 112 1.6 1.6 0.00 0.00 0.00 96 968.9
20260905234501 21 112 1.6 1.6 0.00 0.00 0.00 96 968.9
20260905234002 21 112 1.6 1.6 0.00 0.00 0.00 96 969.0
20260905233002 21 112 1.6 1.6 0.00 0.00 0.00 96 969.0
20260905232001 21 112 1.6 1.6 0.00 0.00 0.00 96 969.1
20260905231001 21 112 1.6 9.7 0.00 0.00 0.00 96 968.9
20260905230512 21 106 8.0 9.7 0.00 0.00 0.00 96 969.0
20260905230002 21 112 8.0 11.3 0.00 0.00 0.00 96 969.0
20260905225501 21 158 8.0 8.0 0.00 0.00 0.00 96 969.0
20260905225002 21 112 4.8 4.8 0.00 0.00 0.00 96 969.0
20260905224501 21 135 4.8 4.8 0.00 0.00 0.00 96 969.0
20260905224002 21 225 4.8 4.8 0.00 0.00 0.00 96 968.9
20260905223501 21 182 4.8 4.8 0.00 0.00 0.00 96 968.9
20260905223002 21 257 3.2 9.7 0.00 0.00 0.00 96 968.9
20260905222502 21 90 9.7 9.7 0.00 0.00 0.00 97 968.7
20260905221502 21 211 8.0 9.7 0.00 0.00 0.00 99 968.8
20260905221001 21 225 8.0 9.7 0.00 0.00 0.00 99 968.8
20260905220002 21 180 3.2 9.7 0.00 0.00 0.00 99 969.0
20260905215501 21 185 1.6 3.2 0.00 0.00 0.00 99 969.0
20260905215002 21 202 3.2 9.7 0.00 0.00 0.00 99 968.5
20260905214502 21 90 8.0 8.0 0.00 0.00 0.00 99 968.5
20260905214001 21 90 4.8 8.0 0.00 0.00 0.00 99 968.8
20260905213002 20 135 4.8 4.8 0.00 0.00 0.00 99 968.8
20260905212502 20 112 4.8 4.8 0.00 0.00 0.00 99 968.9
20260905212002 20 112 4.8 4.8 0.00 0.00 0.00 99 968.9
20260905211502 20 135 4.8 11.3 0.00 0.00 0.00 99 968.9
20260905211002 20 135 11.3 11.3 0.00 0.00 0.00 99 968.9
20260905210502 20 135 9.7 9.7 0.00 0.00 0.00 99 968.7
20260905205503 20 112 4.8 8.0 0.00 0.00 0.00 99 968.7
20260905205002 20 112 3.2 4.8 0.00 0.00 0.00 98 969.0
20260905204502 20 112 3.2 4.8 0.00 0.00 0.00 97 969.0
20260905204003 21 130 4.8 8.0 0.00 0.00 0.00 96 969.3
20260905203504 21 158 4.8 4.8 0.00 0.00 0.00 94 969.3
20260905203003 21 158 4.8 4.8 0.00 0.00 0.00 94 969.3